Location: Christianberg
(48.9086°N, 14.0209°E)
Time: 03:46:37
(UTC+00:00)

FENGYUN 1C DEB - Pass Details

Date: 29 January 2022
Orbit: 832 x 1169 km, 98.6° (Epoch: 26 May)

Event Time Altitude Azimuth Distance (km) Brightness Sun altitude
Rises 17:05:24 0° 11° (N) 3,494 ? -11.4°
Reaches altitude 10° 17:07:45 10° 8° (N) 2,587 ? -11.8°
Maximum altitude 17:13:23 59° 291° (WNW) 1,096 ? -12.7°
Drops below altitude 10° 17:19:29 10° 213° (SSW) 2,786 ? -13.7°
Sets 17:22:06 0° 210° (SSW) 3,784 ? -14.1°
